Location: Harwich
(41.7160°N, 69.9939°W)
Time: 09:02:24
(UTC+02:00)

A-11 Canister half - Pass Details

Date: 03 March 2024
Orbit: 1513 x 1686 km, 47.2° (Epoch: 24 April)

Event Time Altitude Azimuth Distance (km) Brightness Sun altitude
Exits shadow 08:59:27 55° 318° (NW) 1,946 9.3 -35.7°
Maximum altitude 09:01:31 65° 5° (N) 1,800 9.3 -35.3°
Drops below altitude 10° 09:11:21 10° 87° (E) 3,853 11.8 -33.6°
Sets 09:14:29 0° 90° (E) 4,815 12.5 -33.1°
